GW0202 Weather Reports


Display with metric or nautical units.
time (UTC)temp
F
wind
direction
speed
MPH
gust
MPH
rain 1hr
in
rain 24hr
in
rain mn
in
humidity
%
barometer
mb
20260507095433 44 23 3.0 4.0 0.00 0.11 0.11 99 1005.9
20260507094930 44 94 2.0 3.0 0.00 0.11 0.11 99 1006.2
20260507094426 44 86 2.0 2.0 0.00 0.11 0.11 99 1005.8
20260507093923 44 33 0.0 2.0 0.00 0.11 0.11 99 1006.3
20260507093421 44 115 2.0 2.0 0.00 0.11 0.11 99 1006.0
20260507092919 44 104 3.0 3.0 0.00 0.11 0.11 99 1006.0
20260507092415 44 44 1.0 2.0 0.00 0.11 0.11 99 1005.9
20260507091912 44 18 2.0 3.0 0.00 0.11 0.11 99 1005.9
20260507091408 44 321 2.0 2.0 0.00 0.11 0.11 99 1006.0
20260507090904 44 225 0.0 2.0 0.00 0.11 0.11 99 1006.2
20260507090400 44 77 0.0 2.0 0.00 0.11 0.11 99 1006.1
20260507085857 45 57 1.0 2.0 0.00 0.11 0.11 99 1006.3
20260507085354 45 202 0.0 2.0 0.00 0.11 0.11 99 1006.3
20260507084851 45 97 0.0 2.0 0.00 0.11 0.11 99 1006.0
20260507084348 45 62 0.0 3.0 0.00 0.11 0.11 99 1005.6
20260507083845 45 126 2.0 3.0 0.00 0.11 0.11 99 1005.8
20260507083341 45 67 2.0 4.0 0.00 0.11 0.11 99 1005.5
20260507082838 45 28 0.0 2.0 0.00 0.11 0.11 99 1005.4
20260507082333 45 64 4.0 4.0 0.02 0.11 0.11 99 1005.7
20260507081831 45 104 3.0 5.0 0.02 0.11 0.11 99 1005.6
20260507081326 45 23 3.0 4.0 0.00 0.11 0.11 99 1005.8
20260507080823 45 25 3.0 4.0 0.00 0.11 0.11 99 1005.8
20260507080320 46 347 2.0 4.0 0.02 0.11 0.11 99 1005.8
20260507075815 46 7 6.0 6.0 0.00 0.11 0.11 99 1005.6
20260507075312 46 34 3.0 4.0 0.02 0.11 0.11 99 1006.1
20260507074808 47 85 2.0 2.0 0.02 0.11 0.11 99 1005.8
20260507074306 47 86 2.0 2.0 0.00 0.10 0.10 99 1006.2
20260507073803 47 79 0.0 1.0 0.02 0.10 0.10 99 1006.0
20260507073259 47 55 2.0 2.0 0.02 0.10 0.10 99 1005.5
20260507072757 47 83 1.0 3.0 0.02 0.10 0.10 99 1005.7
20260507072254 47 61 2.0 3.0 0.02 0.10 0.10 99 1005.7
20260507071751 47 137 2.0 2.0 0.02 0.09 0.09 99 1005.7
20260507071248 47 43 2.0 4.0 0.02 0.09 0.09 99 1005.6
20260507070745 47 38 1.0 2.0 0.02 0.09 0.09 99 1005.4
20260507070242 47 83 2.0 2.0 0.02 0.09 0.09 99 1005.2
20260507065738 47 25 2.0 2.0 0.02 0.09 0.09 99 1005.2
20260507065235 47 18 1.0 2.0 0.02 0.09 0.09 99 1005.3
20260507064732 47 55 5.0 5.0 0.02 0.08 0.08 99 1005.1
20260507064231 47 53 2.0 4.0 0.02 0.08 0.08 99 1005.3
20260507063728 47 57 1.0 2.0 0.02 0.08 0.08 99 1005.3
20260507063225 47 20 2.0 3.0 0.02 0.08 0.08 99 1005.1
20260507062722 47 62 2.0 2.0 0.02 0.07 0.07 99 1005.0
20260507062219 48 74 0.0 2.0 0.05 0.07 0.07 99 1005.1
20260507061717 47 29 2.0 3.0 0.02 0.07 0.07 99 1005.2
20260507061215 47 54 2.0 2.0 0.02 0.07 0.07 99 1005.1
20260507060713 47 25 3.0 4.0 0.02 0.07 0.07 99 1004.7
20260507060209 48 44 3.0 5.0 0.02 0.06 0.06 99 1004.9
20260507055705 48 61 3.0 4.0 0.05 0.06 0.06 99 1004.6
20260507055200 48 26 6.0 6.0 0.02 0.06 0.06 99 1004.9
20260507054657 48 41 3.0 4.0 0.02 0.06 0.06 99 1004.9
20260507054154 48 38 3.0 3.0 0.02 0.06 0.06 99 1005.1
20260507053652 48 46 4.0 5.0 0.02 0.05 0.05 99 1005.0
20260507053150 48 53 2.0 3.0 0.05 0.05 0.05 99 1004.9
20260507052648 48 99 2.0 6.0 0.02 0.05 0.05 99 1005.0
20260507052143 48 0 3.0 9.0 0.02 0.04 0.04 99 1005.2
20260507051641 48 0 2.0 4.0 0.02 0.04 0.04 99 1005.4
20260507051138 48 14 2.0 3.0 0.02 0.04 0.04 99 1005.4
20260507050635 48 67 1.0 3.0 0.02 0.04 0.04 99 1005.4
20260507050131 49 59 3.0 6.0 0.02 0.03 0.03 99 1005.1
20260507045629 49 256 2.0 4.0 0.02 0.03 0.03 99 1005.5
20260507045125 49 31 3.0 5.0 0.02 0.03 0.03 99 1005.5
20260507044622 49 30 2.0 6.0 0.02 0.02 0.02 99 1005.1
20260507044119 49 23 4.0 6.0 0.05 0.02 0.02 99 1005.1
20260507043615 49 166 0.0 4.0 0.02 0.02 0.02 99 1004.9
20260507043112 49 42 5.0 8.0 0.02 0.02 0.02 99 1004.8
20260507042608 49 80 4.0 9.0 0.05 0.02 0.02 99 1004.7
20260507042103 50 88 2.0 5.0 0.02 0.01 0.01 99 1005.1
20260507041600 50 8 5.0 13.0 0.02 0.01 0.01 99 1004.8
20260507041057 50 19 2.0 5.0 0.02 0.01 0.01 99 1005.1
20260507040554 50 252 0.0 5.0 0.02 0.00 0.00 99 1005.0
20260507040050 50 58 6.0 7.0 0.02 0.43 0.43 99 1004.8
20260507035546 50 23 2.0 7.0 0.02 0.43 0.43 99 1005.0
20260507035043 51 20 3.0 13.0 0.02 0.42 0.42 99 1004.9
20260507034540 51 317 4.0 11.0 0.05 0.42 0.42 99 1004.8
20260507034038 52 323 4.0 14.0 0.02 0.42 0.42 99 1004.6
20260507033535 53 80 0.0 4.0 0.02 0.42 0.42 99 1004.3
20260507033032 53 191 0.0 2.0 0.02 0.42 0.42 99 1004.2
20260507032530 53 195 1.0 3.0 0.02 0.41 0.41 99 1003.9
20260507032026 53 105 0.0 1.0 0.02 0.41 0.41 99 1003.6
20260507031522 53 76 0.0 2.0 0.02 0.41 0.41 99 1003.7
20260507031019 53 169 2.0 2.0 0.02 0.41 0.41 99 1003.9
20260507030516 53 221 2.0 7.0 0.02 0.41 0.41 99 1003.7
20260507030014 53 116 1.0 3.0 0.02 0.41 0.41 99 1003.8
20260507025510 53 310 2.0 5.0 0.02 0.40 0.40 99 1003.9
20260507025008 53 108 2.0 8.0 0.02 0.40 0.40 99 1003.7
20260507024506 53 200 0.0 6.0 0.02 0.40 0.40 99 1003.9
20260507024001 53 129 2.0 4.0 0.02 0.40 0.40 99 1004.0
20260507023458 53 126 2.0 4.0 0.02 0.39 0.39 99 1003.8
20260507022955 53 189 5.0 6.0 0.05 0.39 0.39 99 1003.8
20260507022452 53 181 6.0 9.0 0.02 0.39 0.39 99 1003.8
20260507021948 53 181 4.0 13.0 0.02 0.39 0.39 99 1004.0
20260507021443 54 164 1.0 9.0 0.02 0.39 0.39 99 1003.8
20260507020941 54 60 3.0 10.0 0.02 0.38 0.38 99 1003.6
20260507020438 54 139 2.0 5.0 0.00 0.38 0.38 99 1003.7
20260507015935 54 206 0.0 5.0 0.02 0.38 0.38 99 1003.9
20260507015433 54 131 4.0 7.0 0.02 0.38 0.38 99 1003.9
20260507014930 54 224 4.0 6.0 0.02 0.37 0.37 99 1003.7
20260507014426 54 205 4.0 7.0 0.02 0.37 0.37 99 1003.8
20260507013922 54 320 3.0 7.0 0.02 0.37 0.37 99 1003.9
20260507013419 55 248 3.0 6.0 0.02 0.37 0.37 99 1004.0
20260507012917 55 199 3.0 10.0 0.00 0.37 0.37 99 1004.0
20260507012413 55 218 8.0 15.0 0.00 0.37 0.37 99 1004.3
20260507011905 55 207 6.0 13.0 0.00 0.37 0.37 99 1004.4
20260507011402 55 165 3.0 5.0 0.00 0.37 0.37 99 1004.3
20260507010901 55 100 5.0 13.0 0.02 0.37 0.37 99 1004.6
20260507010356 55 238 3.0 12.0 0.02 0.37 0.37 99 1004.4
20260507005854 55 83 2.0 4.0 0.00 0.36 0.36 99 1004.5
20260507005351 55 129 2.0 3.0 0.02 0.36 0.36 99 1004.7
20260507004848 55 156 2.0 4.0 0.02 0.36 0.36 99 1004.6
20260507004345 55 160 3.0 7.0 0.02 0.36 0.36 99 1004.6
20260507003842 55 240 2.0 5.0 0.02 0.36 0.36 99 1004.8
20260507003337 55 239 10.0 11.0 0.02 0.35 0.35 99 1004.5
20260507002832 55 130 1.0 5.0 0.02 0.35 0.35 99 1004.8
20260507002328 55 117 3.0 5.0 0.02 0.35 0.35 99 1004.7
20260507001826 55 111 2.0 5.0 0.02 0.35 0.35 99 1004.6
20260507001323 55 143 0.0 4.0 0.02 0.35 0.35 99 1004.6
20260507000819 55 82 2.0 4.0 0.02 0.34 0.34 99 1004.7
20260507000315 54 141 2.0 4.0 0.02 0.34 0.34 99 1004.8
20260506235812 54 94 1.0 4.0 0.05 0.34 0.34 99 1004.9
20260506235308 54 89 2.0 10.0 0.02 0.34 0.34 99 1004.8
20260506234804 54 152 6.0 6.0 0.05 0.34 0.34 99 1004.9
20260506234302 54 214 2.0 4.0 0.05 0.33 0.33 99 1004.7
20260506233759 54 151 3.0 6.0 0.02 0.33 0.33 99 1005.0
20260506233250 54 122 4.0 6.0 0.02 0.32 0.32 99 1005.0
20260506232742 54 120 2.0 9.0 0.02 0.32 0.32 99 1005.1
20260506232241 54 212 3.0 11.0 0.05 0.32 0.32 99 1005.3
20260506231739 54 165 4.0 5.0 0.02 0.32 0.32 99 1005.1
20260506231237 54 132 4.0 6.0 0.02 0.31 0.31 99 1005.1
20260506230734 54 115 2.0 9.0 0.02 0.31 0.31 99 1005.2
20260506230230 54 94 1.0 8.0 0.05 0.31 0.31 99 1005.3
20260506225727 54 131 3.0 4.0 0.05 0.30 0.30 99 1005.4
20260506225224 54 148 3.0 5.0 0.05 0.30 0.30 99 1005.5
20260506224721 54 183 3.0 5.0 0.05 0.29 0.29 99 1005.5
20260506224218 54 211 5.0 11.0 0.05 0.29 0.29 99 1005.4
20260506223714 54 157 4.0 10.0 0.02 0.29 0.29 99 1005.5
20260506223210 54 119 2.0 10.0 0.02 0.28 0.28 99 1005.7
20260506222707 54 210 3.0 5.0 0.02 0.28 0.28 99 1005.7
20260506222202 54 108 2.0 3.0 0.05 0.28 0.28 99 1005.8
20260506221701 54 81 3.0 5.0 0.05 0.28 0.28 99 1005.8
20260506221158 54 133 2.0 8.0 0.05 0.27 0.27 99 1005.9
20260506220655 54 200 2.0 11.0 0.05 0.27 0.27 99 1006.0
20260506220150 54 185 4.0 9.0 0.05 0.26 0.26 99 1006.0
20260506215647 55 208 3.0 13.0 0.05 0.26 0.26 99 1005.7
20260506215142 55 224 5.0 10.0 0.05 0.26 0.26 99 1006.0
20260506214639 55 201 6.0 6.0 0.05 0.25 0.25 99 1005.7
20260506214137 55 114 3.0 12.0 0.05 0.25 0.25 99 1005.6
20260506213635 55 112 3.0 5.0 0.05 0.24 0.24 99 1005.8
20260506213132 55 55 3.0 6.0 0.05 0.24 0.24 99 1005.8
20260506212629 55 145 3.0 6.0 0.07 0.24 0.24 99 1005.9
20260506212124 55 128 2.0 3.0 0.05 0.23 0.23 99 1005.9
20260506211620 55 227 9.0 11.0 0.05 0.22 0.22 99 1006.0
20260506211117 55 121 3.0 4.0 0.07 0.22 0.22 99 1005.8
20260506210614 55 113 4.0 4.0 0.05 0.21 0.21 99 1006.0
20260506210110 55 160 1.0 6.0 0.05 0.21 0.21 99 1006.0
20260506205607 55 119 5.0 5.0 0.07 0.20 0.20 99 1005.9
20260506205102 55 140 2.0 6.0 0.05 0.20 0.20 99 1006.0
20260506204600 55 67 4.0 5.0 0.07 0.19 0.19 99 1006.0
20260506204057 55 261 6.0 8.0 0.07 0.18 0.18 99 1006.3
20260506203555 55 172 4.0 7.0 0.07 0.18 0.18 99 1006.1
20260506203051 55 110 2.0 8.0 0.07 0.17 0.17 99 1006.0
20260506202549 55 119 4.0 11.0 0.07 0.17 0.17 99 1006.2
20260506202045 55 133 3.0 6.0 0.07 0.16 0.16 99 1006.2
20260506201543 55 344 3.0 9.0 0.09 0.16 0.16 99 1006.1
20260506201039 55 150 4.0 7.0 0.07 0.15 0.15 99 1006.2
20260506200535 55 121 4.0 6.0 0.07 0.14 0.14 99 1006.2
20260506200032 55 125 2.0 7.0 0.07 0.13 0.13 99 1006.2
20260506195529 55 126 2.0 7.0 0.07 0.13 0.13 99 1006.4
20260506195025 56 72 2.0 5.0 0.07 0.12 0.12 99 1006.4
20260506194523 56 103 3.0 5.0 0.09 0.11 0.11 99 1006.7
20260506194020 56 116 3.0 3.0 0.09 0.11 0.11 99 1006.5
20260506193517 56 100 1.0 2.0 0.09 0.10 0.10 99 1006.5
20260506193014 56 102 2.0 3.0 0.07 0.09 0.09 99 1006.8
20260506192511 56 175 2.0 3.0 0.07 0.08 0.08 99 1006.7
20260506192007 56 141 3.0 4.0 0.07 0.07 0.07 99 1006.8
20260506191504 57 175 3.0 5.0 0.09 0.07 0.07 99 1006.6
20260506191000 57 93 2.0 4.0 0.07 0.06 0.06 99 1006.4
20260506190457 57 130 3.0 3.0 0.07 0.06 0.06 99 1006.6
20260506185953 57 98 2.0 2.0 0.07 0.05 0.05 99 1006.6
20260506185451 57 56 1.0 2.0 0.09 0.04 0.04 98 1006.5
20260506184948 58 89 2.0 2.0 0.09 0.04 0.04 97 1006.6
20260506184445 58 100 2.0 2.0 0.07 0.03 0.03 96 1006.3
20260506183942 58 134 1.0 4.0 0.07 0.02 0.02 94 1006.4
20260506183437 59 171 2.0 4.0 0.09 0.02 0.02 91 1006.4
20260506182935 59 164 1.0 5.0 0.05 0.01 0.01 88 1006.5
20260506182432 60 58 1.0 10.0 0.00 0.00 0.00 86 1006.5
20260506181929 60 102 2.0 8.0 0.00 0.00 0.00 84 1006.6
20260506181427 60 117 2.0 3.0 0.00 0.00 0.00 86 1006.7
20260506180923 60 151 3.0 5.0 0.00 0.00 0.00 86 1006.7
20260506180420 60 152 2.0 7.0 0.00 0.00 0.00 85 1006.7
20260506175917 60 121 4.0 5.0 0.00 0.00 0.00 86 1006.7
20260506175414 60 118 4.0 6.0 0.00 0.00 0.00 86 1007.0
20260506174910 60 131 2.0 4.0 0.00 0.00 0.00 85 1007.0
20260506174408 61 139 2.0 6.0 0.00 0.00 0.00 86 1006.9
20260506173905 61 116 4.0 8.0 0.00 0.00 0.00 83 1007.0
20260506173402 62 137 7.0 8.0 0.00 0.00 0.00 81 1007.2
20260506172859 62 134 4.0 4.0 0.00 0.00 0.00 81 1007.4
20260506172355 62 169 4.0 4.0 0.00 0.00 0.00 80 1007.1
20260506171853 62 135 6.0 6.0 0.00 0.00 0.00 80 1007.4
20260506171350 62 136 3.0 8.0 0.00 0.00 0.00 80 1007.6
20260506170848 62 196 5.0 5.0 0.00 0.00 0.00 79 1007.5
20260506170343 62 153 2.0 4.0 0.00 0.00 0.00 81 1007.6
20260506165843 62 169 2.0 4.0 0.00 0.00 0.00 81 1007.9
20260506165340 62 203 2.0 6.0 0.00 0.00 0.00 82 1008.1
20260506164836 62 112 4.0 5.0 0.00 0.00 0.00 81 1008.2
20260506164333 62 121 3.0 6.0 0.00 0.00 0.00 81 1008.1
20260506163831 62 142 3.0 5.0 0.00 0.00 0.00 80 1008.1
20260506163325 62 126 0.0 4.0 0.00 0.00 0.00 80 1008.0
20260506162821 63 215 2.0 5.0 0.00 0.00 0.00 79 1008.4
20260506162319 63 109 3.0 3.0 0.00 0.00 0.00 79 1008.4
20260506161816 62 135 2.0 7.0 0.00 0.00 0.00 80 1008.4
20260506161314 62 240 2.0 6.0 0.00 0.00 0.00 79 1008.6
20260506160812 63 149 3.0 5.0 0.00 0.00 0.00 79 1008.5
20260506160308 63 99 3.0 5.0 0.00 0.00 0.00 79 1008.6
20260506155807 63 129 5.0 5.0 0.00 0.00 0.00 78 1008.8
20260506155306 63 177 2.0 5.0 0.00 0.00 0.00 78 1008.7
20260506153415 63 82 1.0 4.0 0.00 0.00 0.00 79 1008.6
20260506152913 63 189 2.0 5.0 0.00 0.00 0.00 79 1008.5
20260506152410 63 112 3.0 4.0 0.00 0.00 0.00 79 1008.5
20260506151908 62 99 2.0 5.0 0.00 0.00 0.00 79 1008.6
20260506151404 62 133 2.0 4.0 0.00 0.00 0.00 79 1008.5
20260506150902 62 121 4.0 6.0 0.00 0.00 0.00 79 1008.7
20260506150358 62 195 2.0 4.0 0.00 0.00 0.00 80 1008.4
20260506145855 61 132 4.0 6.0 0.00 0.00 0.00 79 1008.4
20260506145351 62 148 2.0 4.0 0.00 0.00 0.00 79 1008.2
20260506144849 62 122 3.0 4.0 0.00 0.00 0.00 80 1008.2
20260506144345 61 123 3.0 6.0 0.00 0.00 0.00 79 1008.5
20260506143844 61 137 5.0 6.0 0.00 0.00 0.00 80 1008.6
20260506143341 60 153 3.0 8.0 0.00 0.00 0.00 80 1008.6
20260506142839 60 152 2.0 5.0 0.00 0.00 0.00 80 1008.9
20260506142337 60 227 3.0 4.0 0.00 0.00 0.00 80 1009.0
20260506141835 60 100 2.0 2.0 0.00 0.00 0.00 80 1009.2
20260506141332 60 113 3.0 3.0 0.00 0.00 0.00 81 1009.1
20260506140830 60 132 2.0 3.0 0.00 0.00 0.00 80 1009.3
20260506140327 61 103 2.0 3.0 0.00 0.00 0.00 79 1009.1
20260506135824 60 120 2.0 3.0 0.00 0.00 0.00 79 1009.2
20260506135320 60 117 3.0 4.0 0.00 0.00 0.00 80 1009.2
20260506134817 60 118 3.0 5.0 0.00 0.00 0.00 81 1009.4
20260506134313 59 135 3.0 4.0 0.00 0.00 0.00 80 1009.2
20260506133810 59 85 2.0 4.0 0.00 0.00 0.00 81 1009.1
20260506133307 59 89 2.0 3.0 0.00 0.00 0.00 80 1009.2
20260506132804 59 73 2.0 2.0 0.00 0.00 0.00 80 1009.0
20260506132301 58 102 4.0 7.0 0.00 0.00 0.00 81 1008.8
20260506131759 59 86 2.0 4.0 0.00 0.00 0.00 80 1008.9
20260506131255 59 68 2.0 3.0 0.00 0.00 0.00 80 1009.0
20260506130752 58 141 0.0 5.0 0.00 0.00 0.00 80 1009.3
20260506130249 59 91 3.0 4.0 0.00 0.00 0.00 81 1009.1
20260506125747 58 66 3.0 6.0 0.00 0.00 0.00 80 1009.3
20260506125244 59 124 2.0 4.0 0.00 0.00 0.00 81 1009.3
20260506124743 58 99 4.0 8.0 0.00 0.00 0.00 81 1009.2
20260506124240 58 98 4.0 5.0 0.00 0.00 0.00 81 1009.3
20260506123737 58 123 3.0 5.0 0.00 0.00 0.00 81 1009.4
20260506123236 58 115 3.0 8.0 0.00 0.00 0.00 83 1009.6
20260506122732 57 89 0.0 4.0 0.00 0.00 0.00 84 1010.1
20260506122229 56 92 3.0 4.0 0.00 0.00 0.00 84 1010.2
20260506121728 56 94 1.0 5.0 0.00 0.00 0.00 84 1009.9
20260506121224 56 83 3.0 3.0 0.00 0.00 0.00 84 1009.7
20260506120722 56 127 4.0 5.0 0.00 0.00 0.00 84 1009.8
20260506120219 56 131 4.0 6.0 0.00 0.00 0.00 84 1010.0
20260506115717 57 95 3.0 5.0 0.00 0.00 0.00 83 1010.2
20260506115215 57 114 3.0 6.0 0.00 0.00 0.00 84 1010.0
20260506114712 56 73 0.0 4.0 0.00 0.00 0.00 84 1010.0
20260506114210 56 100 2.0 4.0 0.00 0.00 0.00 85 1010.0
20260506113708 56 107 2.0 3.0 0.00 0.00 0.00 85 1010.1
20260506113205 55 87 3.0 3.0 0.00 0.00 0.00 85 1010.1
20260506112701 55 94 2.0 2.0 0.00 0.00 0.00 86 1010.0
20260506112159 55 75 2.0 2.0 0.00 0.00 0.00 87 1010.1
20260506111656 54 87 2.0 2.0 0.00 0.00 0.00 87 1010.2
20260506111154 54 100 2.0 3.0 0.00 0.00 0.00 87 1010.1
20260506110651 54 53 2.0 3.0 0.00 0.00 0.00 88 1010.0
20260506110149 54 89 0.0 2.0 0.00 0.00 0.00 88 1010.1
20260506105645 54 94 0.0 2.0 0.00 0.00 0.00 89 1009.7
20260506105142 53 71 2.0 2.0 0.00 0.00 0.00 89 1009.7
20260506104640 53 59 2.0 3.0 0.00 0.00 0.00 91 1009.9
20260506104137 53 60 2.0 3.0 0.00 0.00 0.00 93 1009.9
20260506103634 52 99 2.0 3.0 0.00 0.00 0.00 93 1009.9
20260506103131 52 72 4.0 4.0 0.00 0.00 0.00 94 1010.1
20260506102629 52 98 2.0 3.0 0.00 0.00 0.00 94 1010.3
20260506102126 52 55 3.0 3.0 0.00 0.00 0.00 94 1010.2
20260506101623 51 19 1.0 3.0 0.00 0.00 0.00 94 1010.3
20260506101120 51 35 3.0 4.0 0.00 0.00 0.00 95 1010.3
20260506100618 51 103 2.0 3.0 0.00 0.00 0.00 94 1010.1
20260506100116 51 65 0.0 3.0 0.00 0.00 0.00 94 1009.9
20260506095615 51 99 2.0 2.0 0.00 0.00 0.00 94 1010.0